STARLINK-32283 (62425 NORAD) Tracking and Keplerian Element Data

This shows tracking and keplerian element data for the satellite.

Feedback or suggestion? Click here.




ElementValue
Catalog62425
NameSTARLINK-32283
Epoch Orbit674
Epoch Day35.06583126
Epoch Year2025
RAAN58.7629
Inclination43.0022
Eccentricity6.4E-05
Argument of Perigee232.8123
Mean Anonmoly127.2676
Mean Motion15.40697359
Decay Rate5.46E-06
L11 62425U 24249S 25035.06583126 .00000546 00000+0 20318-4 0 9998
L22 62425 43.0022 58.7629 0000640 232.8123 127.2676 15.40697359 6747



Live tracking and technical data element details for STARLINK-32283 (NORAD 62425). STARLINK-32283 can be tracked NOW for your location showing map with azimuth and elevation plus other details from your city location.







IsCatalogInMostPopularTable: catalog: 62425, numindb: 17
Update: records affected: 1



GetName: 62425 STARLINK-32283

Hit Count: updated at: Mon, 19 May 2025 02:58:12 GMT